Home   Weather   Bretten   Past weeks

Flag for Germany Past Weather in Bretten, Baden-Württemberg, Germany — Yesterday and Last 2 Weeks

Now
32 °F

Ice fog.


Feels Like: 32 °F
Forecast: 23 / 34 °F
Wind: 2 mph from North

Location: Mannheim City

Current Time: Dec 5, 2016 at 9:48:11 pm

Latest Report: Dec 5, 2016 at 9:20 pm


Visibility: 3 mi

Pressure: 30.39 "Hg

Humidity: 100%

Dew Point: 32 °F

Location of BrettenLocation

Past Weather in Bretten — Graph

°F

Bretten Temperature Yesterday

Maximum temperature yesterday: 39 °F (at 2:20 pm)
Minimum temperature yesterday: 18 °F (at 8:20 am)
Average temperature yesterday: 30 °F

High & Low Weather Summary for the Past Weeks

 TemperatureHumidityPressure
High57 °F (Nov 20, 8:20 pm)100% (Nov 22, 6:20 am)30.57 "Hg (Nov 22, 6:20 am)
Low18 °F (Dec 4, 8:20 am)45% (Nov 29, 1:20 pm)29.62 "Hg (Nov 21, 11:20 am)
Average41 °F82%30.18 "Hg
* Reported Nov 20 8:20 pm — Dec 5 8:20 pm, Bretten, Weather by CustomWeather, © 2016

Note: Actual official high and low records may vary slightly from our data, if they occured in-between our weather recording intervals... More about our weather records

Advertising

Bretten Weather History for the Previous 24 Hours

Scroll right to see more
 ConditionsComfort  
Time TempWeatherWind HumidityBarometerVisibility
8:20 pm
Mon, Dec 5
32 °FLow clouds.2 mph100%30.39 "Hg4 mi
7:50 pm32 °FLow clouds.2 mph100%30.39 "Hg4 mi
7:20 pm32 °FLow clouds.2 mph100%30.39 "Hg4 mi
6:50 pm32 °FLow clouds.2 mph100%30.39 "Hg4 mi
6:20 pm32 °FLow clouds.2 mph100%30.39 "Hg4 mi
5:50 pm32 °FLow clouds.2 mph100%30.39 "Hg4 mi
5:20 pm32 °FLow clouds.2 mph93%30.39 "Hg4 mi
4:50 pm32 °FLow clouds.2 mph100%30.36 "Hg4 mi
4:20 pm32 °FLow clouds.3 mph100%30.36 "Hg4 mi
3:50 pm32 °FLow clouds.2 mph93%30.36 "Hg5 mi
3:20 pm32 °FLow clouds.1 mph93%30.36 "Hg6 mi
2:50 pm32 °FLow clouds.1 mph93%30.36 "Hg5 mi
2:20 pm32 °FLow clouds.2 mph93%30.36 "Hg5 mi
1:50 pm32 °FLow clouds.2 mph93%30.36 "Hg5 mi
1:20 pm32 °FLow clouds.1 mph93%30.36 "Hg5 mi
12:50 pm32 °FLow clouds.2 mph93%30.36 "Hg5 mi
12:20 pm32 °FLow clouds.2 mph93%30.39 "Hg6 mi
11:50 am32 °FLow clouds.2 mph93%30.39 "Hg6 mi
11:20 am32 °FLow clouds.5 mph93%30.39 "Hg6 mi
10:50 am32 °FLow clouds.2 mph93%30.39 "Hg6 mi
10:20 am30 °FLow clouds.2 mph100%30.39 "Hg6 mi
9:50 am30 °FOvercast.3 mph100%30.39 "Hg6 mi
9:20 am30 °FOvercast.5 mph100%30.36 "Hg6 mi
8:50 am30 °FOvercast.5 mph100%30.36 "Hg6 mi
8:20 am30 °FOvercast.5 mph100%30.36 "Hg6 mi
7:50 am30 °FPassing clouds.3 mph100%30.36 "Hg6 mi
7:20 am28 °FPassing clouds.1 mph100%30.36 "HgN/A
6:50 am28 °FPassing clouds.1 mph100%30.36 "HgN/A
6:20 am27 °FPassing clouds.2 mph100%30.36 "HgN/A
5:50 am27 °FPassing clouds.2 mph100%30.36 "HgN/A
10:20 pm
Sun, Dec 4
25 °FClear.2 mph100%30.36 "Hg10 mi
9:50 pm23 °FClear.2 mph100%30.36 "Hg10 mi
9:20 pm25 °FClear.1 mph100%30.36 "Hg10 mi
Weather by CustomWeather, © 2016

See weather overviewHow to use our weather pages